Location: Asheville, NC
(35.6000°N, 82.5500°W)
Time: 00:04:34
(UTC-05:00)

OTV 5 (USA 277) - Pass Details

Date: 10 December 2017
Orbit: 404 x 417 km, 43.0° (Epoch: 07 September)

Event Time Altitude Azimuth Distance (km) Brightness Sun altitude
Rises 19:07:17 0° 299° (WNW) 2,352 ? -21.7°
Reaches altitude 10° 19:09:32 10° 310° (NW) 1,488 ? -22.2°
Enters shadow 19:11:09 22° 330° (NNW) 956 ? -22.5°
